[[{"header":{"parameterUnit":"m.s-1","parameterCategory":1,"la1":30.2991,"la2":30.254,"lo1":-89.0895,"lo2":-89.0444,"dy":0.0017,"dx":0.0017,"nx":28,"ny":28,"refTime":"2024-06-30T21:00:00:Z","depth":0,"parameterNumber":2,"parameterNumberName":"U-component_of_WINDS"},"data":[0,0,0,0,0,0,0,0,0,0,0,0,0,0,0,0,0,0,0,0,0,0,0,0,0,0,0,0,0,0,0,0,0,0,0,0,0,0,0,0,0,0,0,0,0,0,0,0,0,0,0,0,0,0,0,0,0,0,0.4008,0.4009,0,0.4072,0.4072,0.4073,0.4031,0.4029,0.4027,0.4025,0.4095,0.4099,0.4103,0,0,0,0,0,0,0,0,0,0,0,0,0,0.3856,0.3859,0.4008,0.4009,0.401,0.4072,0.4073,0.4073,0.4031,0.4029,0.4026,0.4024,0.4094,0.4098,0.4103,0,0,0,0,0,0,0,0,0,0,0,0,0,0.3921,0.386,0.4008,0.3996,0.3995,0.4071,0.4073,0.4074,0.4032,0.4029,0.4026,0.4023,0.4093,0.4098,0.4103,0.4196,0,0,0.412,0.4123,0,0,0,0,0,0,0,0,0.3918,0.3927,0.3997,0.3997,0.3996,0.404,0.4045,0.4115,0.4032,0.4018,0.4025,0.4022,0.408,0.4086,0.4105,0.42,0.4203,0.4121,0.4124,0.4127,0.4128,0,0,0,0,0,0,0,0.3913,0.3924,0.4033,0.3998,0.3998,0.3989,0.3995,0.4058,0.4065,0.4019,0.4016,0.4024,0.4079,0.4099,0.4106,0.4204,0.4121,0.4126,0.4129,0.4131,0.4381,0.4384,0,0,0,0,0,0,0.3909,0.392,0.4031,0.4035,0.3949,0.3994,0.4001,0.4029,0.4064,0.4066,0.4027,0.4022,0.4091,0.41,0.4108,0.4221,0.4127,0.4132,0.4135,0.4377,0.4381,0.4385,0,0,0,0,0,0,0.3906,0.3919,0.4029,0.3977,0.399,0.4,0.4032,0.4032,0.4052,0.4069,0.4071,0.4046,0.4089,0.4101,0.4175,0.4223,0.4134,0.4139,0.4373,0.4378,0.4383,0.4446,0,0,0,0,0,0,0.3901,0.3918,0.3952,0.3978,0.3993,0.4093,0.4035,0.4035,0.4061,0.4056,0.4088,0.409,0.4088,0.4167,0.418,0.4229,0.4144,0.4369,0.4376,0.4381,0.444,0.4453,0.4464,0,0,0,0,0,0.3896,0.3968,0.3954,0.3968,0.4035,0.4096,0.4104,0.4099,0.4065,0.4101,0.4112,0.4089,0.4215,0.4175,0.419,0.4241,0.4366,0.4374,0.4381,0.4435,0.445,0.4463,0,0,0,0,0,0,0.3949,0.3971,0.3956,0.4038,0.4065,0.4088,0.4132,0.4115,0.4154,0.4147,0.414,0.4148,0.4226,0.4241,0.4195,0.4333,0.4286,0.4296,0.4321,0.4336,0.4348,0.4344,0.4148,0,0,0,0,0,0.3969,0.4015,0.4032,0.4103,0.4117,0.4123,0.4149,0.4142,0.4171,0.4182,0.4199,0.4229,0.4276,0.4306,0.435,0.4441,0.4449,0.4484,0.4496,0.4505,0.4515,0.4567,0.4583,0.4409,0.4409,0.4409,0,0,0.4014,0.4031,0.406,0.4114,0.4134,0.4184,0.4133,0.4186,0.4223,0.4191,0.4262,0.4276,0.4309,0.4393,0.4431,0.4408,0.4565,0.4515,0.4522,0.4527,0.4576,0.4593,0.4608,0.4414,0.4413,0.4413,0,0,0.4119,0.4136,0.4198,0.4219,0.425,0.4253,0.4268,0.4295,0.4302,0.4373,0.4351,0.4395,0.4475,0.45,0.4523,0.464,0.4622,0.4655,0.4717,0.4768,0.4782,0.4794,0.4838,0.4853,0.4664,0.4664,0.4664,0,0.4171,0.4242,0.4232,0.4288,0.4313,0.4285,0.4349,0.437,0.4415,0.4434,0.4407,0.4507,0.4527,0.4618,0.4647,0.4665,0.4684,0.4652,0.478,0.4792,0.4804,0.4845,0.4862,0.4668,0.4668,0.4667,0.4667,0,0.4305,0.4355,0.4401,0.4444,0.4474,0.4534,0.4535,0.4568,0.4559,0.4566,0.464,0.4663,0.4712,0.4732,0.4724,0.4823,0.4808,0.478,0.4732,0.4824,0.4864,0.4879,0.4674,0.4673,0.4671,0.467,0,0,0.4446,0.4482,0.45,0.452,0.4552,0.4592,0.4651,0.4697,0.4726,0.4758,0.481,0.4878,0.4853,0.488,0.4875,0.4919,0.5013,0.4886,0.4887,0.4911,0.5125,0.5147,0.5165,0.5,0.5003,0.5005,0.5123,0,0.4555,0.4657,0.465,0.4747,0.4795,0.4769,0.4821,0.4848,0.4856,0.4899,0.4909,0.4958,0.4921,0.4937,0.4979,0.4992,0.5056,0.4983,0.505,0.5052,0.5044,0.5185,0.5208,0.5318,0.5138,0.5141,0.5142,0,0.4696,0.4732,0.4833,0.486,0.488,0.4926,0.4969,0.501,0.5041,0.5044,0.5074,0.5062,0.5124,0.5073,0.5161,0.5112,0.5138,0.5149,0.5153,0.5161,0.5104,0.5199,0.5353,0.537,0.5166,0.5164,0.5162,0,0.4791,0.4865,0.4935,0.4953,0.4985,0.5019,0.5035,0.5063,0.5091,0.513,0.5149,0.5194,0.5219,0.5256,0.5257,0.5219,0.5346,0.5295,0.5352,0.5353,0.5382,0.538,0.5544,0.5396,0.5396,0.5395,0.5395,0,0.4915,0.4979,0.4979,0.5022,0.5094,0.5087,0.5158,0.517,0.5195,0.5243,0.5223,0.5268,0.5266,0.5312,0.5314,0.5387,0.5398,0.5404,0.5405,0.5407,0.5407,0.5426,0.5419,0.54,0.5399,0.5398,0.5397,0,0.5034,0.5037,0.5112,0.5137,0.5145,0.5196,0.5218,0.5261,0.5267,0.5328,0.5341,0.5352,0.5406,0.5411,0.5473,0.5474,0.5564,0.5554,0.5553,0.5552,0.561,0.5606,0.5794,0.5819,0.5653,0.5654,0.5656,0,0.5114,0.5162,0.5192,0.5221,0.5239,0.5286,0.5316,0.5311,0.5343,0.5382,0.5421,0.5472,0.5513,0.5601,0.5616,0.5664,0.5657,0.572,0.5664,0.5666,0.5661,0.5658,0.5664,0.5731,0.5733,0.5734,0.5736,0,0.5256,0.5255,0.5297,0.534,0.5375,0.5409,0.5441,0.5467,0.5466,0.5503,0.5557,0.5589,0.5653,0.5705,0.5753,0.5771,0.5755,0.5753,0.5769,0.5773,0.5771,0.5775,0.5585,0.5749,0.5748,0.5747,0.5746,0.5745,0.5359,0.5401,0.5429,0.5477,0.5501,0.5531,0.5573,0.5584,0.5629,0.5679,0.5674,0.5735,0.5767,0.5828,0.585,0.5899,0.5878,0.5901,0.5907,0.5913,0.592,0.5762,0.5907,0.5907,0.5906,0.5906,0.5906,0,0.5502,0.5518,0.5563,0.5607,0.5646,0.5625,0.5659,0.5694,0.5747,0.5777,0.5817,0.5881,0.5932,0.5951,0.6001,0.6036,0.603,0.605,0.6048,0.6053,0.5935,0.5917,0.6054,0.6054,0.6054,0.6054,0.6054,0.6054,0.5581,0.5652,0.5654,0.5738,0.5754,0.5813,0.5834,0.5863,0.5887,0.5958,0.6,0.6011,0.6038,0.609,0.6137,0.6141,0.6161,0.6185,0.6186,0.6076,0.6061,0.6047,0.603,0.6189,0.6189,0.63,0.6301,0.6302]},{"header":{"parameterUnit":"m.s-1","parameterCategory":1,"la1":30.2991,"la2":30.254,"lo1":-89.0895,"lo2":-89.0444,"dy":0.0017,"dx":0.0017,"nx":28,"ny":28,"refTime":"2024-06-30T21:00:00:Z","depth":0,"parameterNumber":3,"parameterNumberName":"V-component_of_WINDS"},"data":[0,0,0,0,0,0,0,0,0,0,0,0,0,0,0,0,0,0,0,0,0,0,0,0,0,0,0,0,0,0,0,0,0,0,0,0,0,0,0,0,0,0,0,0,0,0,0,0,0,0,0,0,0,0,0,0,0,0,0.5875,0.5876,0,0.6003,0.6004,0.6006,0.5978,0.5976,0.5974,0.5971,0.61,0.6105,0.6111,0,0,0,0,0,0,0,0,0,0,0,0,0,0.5599,0.5604,0.5875,0.5876,0.5878,0.6003,0.6005,0.6006,0.5979,0.5976,0.5973,0.597,0.6098,0.6105,0.6111,0,0,0,0,0,0,0,0,0,0,0,0,0,0.5722,0.5606,0.5874,0.5879,0.5881,0.6002,0.6005,0.6007,0.5979,0.5976,0.5972,0.5969,0.6096,0.6104,0.6112,0.6236,0,0,0.6138,0.6142,0,0,0,0,0,0,0,0,0.5715,0.5732,0.5877,0.5879,0.5881,0.5971,0.5954,0.6084,0.598,0.5942,0.5971,0.5967,0.606,0.6071,0.6103,0.6242,0.6247,0.6139,0.6144,0.6148,0.615,0,0,0,0,0,0,0,0.5707,0.5727,0.5925,0.5879,0.5882,0.5873,0.5886,0.5979,0.6019,0.5945,0.5943,0.5959,0.606,0.6095,0.6105,0.6249,0.6139,0.6146,0.6151,0.6155,0.649,0.6493,0,0,0,0,0,0,0.5697,0.572,0.5921,0.5929,0.5788,0.5881,0.5896,0.5946,0.6018,0.6026,0.5962,0.5957,0.6082,0.6096,0.611,0.6255,0.6148,0.6156,0.616,0.6486,0.649,0.6495,0,0,0,0,0,0,0.5691,0.5715,0.5916,0.5824,0.5849,0.5889,0.5946,0.595,0.5985,0.6031,0.6037,0.599,0.608,0.6098,0.6204,0.6259,0.6159,0.6167,0.6481,0.6487,0.6492,0.6549,0,0,0,0,0,0,0.5683,0.5713,0.5763,0.5825,0.5854,0.601,0.5949,0.5955,0.6,0.5995,0.6059,0.6066,0.6078,0.6191,0.6212,0.6269,0.6174,0.6476,0.6484,0.6491,0.6542,0.6556,0.6568,0,0,0,0,0,0.5674,0.5774,0.5765,0.579,0.5917,0.6013,0.6029,0.6042,0.6005,0.6053,0.6081,0.6064,0.625,0.6202,0.6225,0.6286,0.6473,0.6482,0.649,0.6537,0.6553,0.6567,0,0,0,0,0,0,0.5718,0.5783,0.5774,0.5898,0.595,0.6008,0.607,0.606,0.6124,0.6116,0.6128,0.6142,0.6249,0.6278,0.6224,0.6406,0.6356,0.6369,0.6383,0.6399,0.6412,0.6401,0.6181,0,0,0,0,0,0.5742,0.5816,0.5869,0.5973,0.6,0.603,0.6073,0.6078,0.6132,0.6154,0.619,0.6242,0.6311,0.6357,0.6424,0.6546,0.6557,0.6599,0.6612,0.6622,0.6633,0.6694,0.6712,0.6523,0.6523,0.6523,0,0,0.5793,0.5837,0.5884,0.5983,0.6024,0.6098,0.6049,0.6131,0.6185,0.6166,0.6267,0.6295,0.6353,0.6466,0.6518,0.6494,0.6687,0.6633,0.6641,0.6646,0.6704,0.6722,0.6738,0.6529,0.6528,0.6527,0,0,0.5922,0.5965,0.6054,0.6096,0.6158,0.6177,0.6198,0.6257,0.6275,0.6377,0.6362,0.6425,0.6546,0.6587,0.6623,0.6762,0.6747,0.6784,0.6849,0.6908,0.6923,0.6936,0.6982,0.6998,0.6795,0.6795,0.6795,0,0.5977,0.609,0.6101,0.6183,0.6225,0.621,0.6298,0.6337,0.6418,0.6446,0.6418,0.6566,0.6605,0.6724,0.6757,0.6789,0.681,0.6776,0.692,0.6934,0.6946,0.6989,0.7007,0.6799,0.6798,0.6798,0.6797,0,0.6151,0.6229,0.6294,0.637,0.642,0.6505,0.6526,0.6574,0.6573,0.6594,0.6694,0.674,0.6813,0.6842,0.6843,0.696,0.6942,0.6918,0.6867,0.6968,0.7008,0.7025,0.6804,0.6803,0.6802,0.6801,0,0,0.6314,0.6394,0.6417,0.6449,0.6514,0.6574,0.6655,0.6727,0.6765,0.6821,0.6886,0.6987,0.6962,0.7004,0.7008,0.7061,0.7162,0.7029,0.703,0.7049,0.7288,0.7304,0.7323,0.7152,0.7156,0.7158,0.7281,0,0.6447,0.6592,0.6602,0.6732,0.6801,0.6786,0.6856,0.6902,0.6923,0.6982,0.7004,0.7073,0.7039,0.7062,0.7114,0.7139,0.7209,0.713,0.721,0.7213,0.7194,0.7345,0.7364,0.7478,0.7298,0.7301,0.7303,0,0.6622,0.668,0.6816,0.6867,0.6896,0.696,0.7023,0.7082,0.7131,0.7142,0.7186,0.7182,0.7261,0.7209,0.7316,0.7262,0.7295,0.7312,0.7316,0.7322,0.7263,0.7352,0.7515,0.7531,0.7329,0.7327,0.7325,0,0.6721,0.6834,0.6929,0.6958,0.702,0.7064,0.7092,0.7138,0.7179,0.7234,0.7259,0.7323,0.7357,0.7405,0.7416,0.7377,0.7522,0.7471,0.753,0.7529,0.756,0.7557,0.7727,0.7586,0.7586,0.7585,0.7585,0,0.6866,0.6949,0.6974,0.7032,0.7123,0.7132,0.7221,0.7246,0.7286,0.7346,0.7338,0.7394,0.7407,0.7465,0.7474,0.7559,0.7575,0.7583,0.7584,0.7583,0.7581,0.7603,0.7594,0.759,0.7589,0.7588,0.7587,0,0.6993,0.7013,0.7115,0.7164,0.7178,0.7243,0.7284,0.7338,0.7355,0.7431,0.7449,0.7477,0.7544,0.756,0.7641,0.7647,0.7745,0.7741,0.7729,0.7727,0.7783,0.7776,0.7971,0.7995,0.7841,0.7843,0.7844,0,0.7083,0.7146,0.7201,0.7241,0.727,0.7335,0.7375,0.7386,0.7427,0.7486,0.7532,0.7597,0.765,0.7757,0.7783,0.7843,0.7837,0.7901,0.7846,0.784,0.7833,0.7828,0.7832,0.7911,0.7912,0.7914,0.7915,0,0.7239,0.7245,0.7304,0.7365,0.7414,0.7463,0.7509,0.7542,0.7558,0.7605,0.7673,0.7714,0.7794,0.7857,0.7917,0.7942,0.793,0.7932,0.7948,0.7945,0.7934,0.7937,0.7754,0.7927,0.7926,0.7925,0.7924,0.7924,0.7348,0.7401,0.7447,0.7511,0.7547,0.759,0.7641,0.7664,0.7721,0.7787,0.779,0.7862,0.7905,0.7983,0.8012,0.8067,0.8047,0.8071,0.8077,0.8082,0.8085,0.7927,0.8078,0.8078,0.8078,0.8077,0.8077,0,0.75,0.7527,0.7587,0.7651,0.7701,0.7685,0.7735,0.7776,0.7841,0.7882,0.7934,0.8009,0.8069,0.8098,0.8157,0.8195,0.819,0.821,0.8206,0.8211,0.8101,0.808,0.8212,0.8212,0.8212,0.8212,0.8212,0.8212,0.7584,0.7672,0.7682,0.7785,0.7812,0.7884,0.7912,0.795,0.7982,0.8067,0.8117,0.8136,0.8171,0.8231,0.8284,0.8291,0.8311,0.8333,0.8336,0.8233,0.8219,0.8206,0.8186,0.8338,0.8338,0.8441,0.8442,0.8442]}]]